User: anonymous   Login
Location: S�tio Afonso Gruber
(26.1760°S, 49.5250°W)
Time: 16:44:26
(UTC+00:00)
Language:

PRISM - Orbit

View from above orbital plane
View from above orbital plane
View from above satellite
View from above satellite

Ground track
Ground track

The orbit data is extracted from the following two-line orbital elements,

1 33493U 09002B   22333.71833201  .00004804  00000-0  37474-3 0  9995
2 33493  98.2518 330.0650 0016637   2.9138 357.2179 15.01586037753768
Epoch (UTC): 29 November 2022 17:14:23
Eccentricity: 0.0016637
inclination: 98.2518°
perigee height: 550 km
apogee height: 573 km
right ascension of ascending node: 330.0650°
argument of perigee: 2.9138°
revolutions per day: 15.01586037
mean anomaly at epoch: 357.2179°
orbit number at epoch: 75376

The dashed part of the orbit path shows where the satellite is in the earth's shadow,  

DLR